Indiana, PA

5:20 AM EST on December 09, 2019 (GMT -0500)
Indiana County-Stewart

Weather History for KIDI - August, 2019

Change the Weather History Date:

Tuesday, August 27, 2019

  Actual Average Record
Temperature  
Mean Temperature 66 °F -  
Max Temperature 71 °F 81 °F 95 °F (1948)
Min Temperature 62 °F 58 °F 41 °F (1958)
Cooling Degree Days 2    
Growing Degree Days 16 (Base 50)    
Moisture  
Dew Point 65 °F    
Average Humidity 92    
Maximum Humidity 100    
Minimum Humidity 78    
Precipitation  
Precipitation 0.00 in - - ()
Sea Level Pressure  
Sea Level Pressure 30.02 in    
Wind  
Wind Speed 7 mph ()    
Max Wind Speed 12 mph    
Max Gust Speed 18 mph    
Visibility 7.0 miles    
Events      
Averages and records for this station are not official NWS values.
T = Trace of Precipitation, MM = Missing Value Source: Averaged Metar Reports

Daily Weather History Graph

Daily Weather History Graph

Search for Another Location

Airport or City:

Astronomy

Aug. 27, 2019 Rise Set
Actual Time 6:38 AM EDT 7:56 PM EDT
Civil Twilight 6:10 AM EDT 8:25 PM EDT
Nautical Twilight 5:35 AM EDT 8:59 PM EDT
Astronomical Twilight 5:00 AM EDT 9:34 PM EDT
Moon 3:00 AM EDT (8/27) 6:17 PM EDT (8/27)
Length of Visible Light 14h 15m
Length of Day
13h 18m
Waning Crescent, 11% of the Moon is Illuminated
Aug 27
Waning Crescent
Aug 30
New
Sep 5
First Quarter
Sep 14
Full
Sep 21
Last Quarter

Hourly Weather History & Observations

Time (EDT) Temp. Dew Point Humidity Pressure Visibility Wind Dir Wind Speed Gust Speed Precip Events Conditions
12:15 AM 66.2 °F 59.0 °F 78% 30.08 in 10.0 mi South 10.4 mph 18.4 mph N/A   Scattered Clouds
12:35 AM 66.2 °F 59.0 °F 78% 30.08 in 10.0 mi SSE 11.5 mph 17.3 mph N/A   Scattered Clouds
12:55 AM 66.2 °F 59.0 °F 78% 30.08 in 10.0 mi South 9.2 mph 17.3 mph N/A   Partly Cloudy
1:15 AM 66.2 °F 59.0 °F 78% 30.07 in 10.0 mi South 9.2 mph 15.0 mph N/A   Partly Cloudy
1:35 AM 66.2 °F 59.0 °F 78% 30.07 in 10.0 mi South 9.2 mph 16.1 mph N/A   Mostly Cloudy
1:55 AM 66.2 °F 59.0 °F 78% 30.07 in 10.0 mi Variable 4.6 mph 15.0 mph N/A   Overcast
2:15 AM 66.2 °F 59.0 °F 78% 30.06 in 10.0 mi South 8.1 mph 15.0 mph N/A   Overcast
2:35 AM 66.2 °F 59.0 °F 78% 30.05 in 10.0 mi South 10.4 mph - N/A   Overcast
2:55 AM 66.2 °F 60.8 °F 83% 30.06 in 10.0 mi Variable 5.8 mph 12.7 mph N/A   Overcast
3:15 AM 64.4 °F 60.8 °F 88% 30.05 in 10.0 mi South 5.8 mph - N/A   Overcast
3:35 AM 64.4 °F 60.8 °F 88% 30.05 in 10.0 mi South 9.2 mph - N/A   Overcast
3:55 AM 64.4 °F 60.8 °F 88% 30.05 in 10.0 mi South 8.1 mph - N/A   Overcast
4:15 AM 64.4 °F 60.8 °F 88% 30.04 in 8.0 mi South 5.8 mph - N/A   Overcast
4:35 AM 64.4 °F 60.8 °F 88% 30.04 in 4.0 mi South 6.9 mph - N/A   Overcast
4:55 AM 62.6 °F 60.8 °F 94% 30.03 in 8.0 mi South 6.9 mph - N/A   Overcast
5:15 AM 62.6 °F 60.8 °F 94% 30.04 in 10.0 mi South 8.1 mph - N/A   Overcast
5:35 AM 62.6 °F 60.8 °F 94% 30.04 in 2.5 mi South 5.8 mph - N/A   Overcast
5:55 AM 62.6 °F 62.6 °F 100% 30.04 in 1.8 mi Variable 4.6 mph - N/A   Overcast
6:15 AM 62.6 °F 62.6 °F 100% 30.04 in 2.0 mi SSE 4.6 mph - N/A   Overcast
6:35 AM 62.6 °F 62.6 °F 100% 30.04 in 1.8 mi SSE 4.6 mph - N/A   Overcast
6:55 AM 62.6 °F 62.6 °F 100% 30.04 in 2.5 mi SSE 6.9 mph - N/A   Overcast
7:15 AM 62.6 °F 62.6 °F 100% 30.04 in 2.0 mi Variable 6.9 mph - N/A   Overcast
7:35 AM 62.6 °F 62.6 °F 100% 30.04 in 1.2 mi South 4.6 mph - N/A   Overcast
7:55 AM 62.6 °F 62.6 °F 100% 30.04 in 1.0 mi Variable 6.9 mph - N/A   Overcast
8:15 AM 62.6 °F 62.6 °F 100% 30.04 in 1.0 mi SSE 8.1 mph - N/A   Overcast
8:35 AM 62.6 °F 62.6 °F 100% 30.04 in 1.5 mi SSE 8.1 mph - N/A   Overcast
8:55 AM 62.6 °F 62.6 °F 100% 30.04 in 1.8 mi Variable 8.1 mph - N/A   Overcast
9:15 AM 62.6 °F 62.6 °F 100% 30.04 in 1.0 mi SSE 10.4 mph - N/A   Overcast
9:35 AM 64.4 °F 62.6 °F 94% 30.03 in 1.5 mi SSE 10.4 mph - N/A   Overcast
9:55 AM 64.4 °F 64.4 °F 100% 30.03 in 1.2 mi SSE 9.2 mph 15.0 mph N/A   Overcast
10:15 AM 64.4 °F 64.4 °F 100% 30.03 in 1.0 mi SSE 8.1 mph 13.8 mph N/A   Overcast
10:35 AM 64.4 °F 64.4 °F 100% 30.03 in 2.0 mi SSE 6.9 mph - N/A   Overcast
10:55 AM 64.4 °F 64.4 °F 100% 30.03 in 1.5 mi SSE 6.9 mph - N/A   Overcast
11:15 AM 64.4 °F 64.4 °F 100% 30.03 in 2.5 mi Variable 6.9 mph - N/A   Overcast
11:35 AM 64.4 °F 64.4 °F 100% 30.03 in 10.0 mi SSE 5.8 mph - N/A   Overcast
11:55 AM 66.2 °F 66.2 °F 100% 30.03 in 3.0 mi SSE 6.9 mph - N/A   Overcast
12:15 PM 66.2 °F 66.2 °F 100% 30.02 in 1.8 mi SSE 6.9 mph - N/A   Overcast
12:35 PM 66.2 °F 66.2 °F 100% 30.02 in 2.5 mi SSE 6.9 mph - N/A   Overcast
12:55 PM 68.0 °F 66.2 °F 94% 30.02 in 10.0 mi South 6.9 mph - N/A   Overcast
1:15 PM 68.0 °F 66.2 °F 94% 30.01 in 10.0 mi SSE 5.8 mph - N/A   Overcast
1:35 PM 68.0 °F 66.2 °F 94% 30.01 in 10.0 mi Variable 5.8 mph - N/A   Overcast
1:55 PM 68.0 °F 66.2 °F 94% 30.01 in 10.0 mi South 8.1 mph - N/A   Overcast
2:35 PM 69.8 °F 68.0 °F 94% 29.99 in 10.0 mi SSE 6.9 mph - N/A   Unknown
2:55 PM 69.8 °F 66.2 °F 88% 29.99 in 10.0 mi South 6.9 mph - N/A   Overcast
3:15 PM 71.6 °F 68.0 °F 88% 29.98 in 10.0 mi South 6.9 mph - N/A   Overcast
3:35 PM 71.6 °F 68.0 °F 88% 29.98 in 10.0 mi South 6.9 mph - N/A   Overcast
3:55 PM 71.6 °F 68.0 °F 88% 29.98 in 10.0 mi Calm Calm - N/A   Overcast
4:15 PM 71.6 °F 68.0 °F 88% 29.99 in 10.0 mi SSW 4.6 mph - N/A   Overcast
4:35 PM 71.6 °F 68.0 °F 88% 29.99 in 6.0 mi Calm Calm - N/A   Overcast
4:55 PM 69.8 °F 68.0 °F 94% 29.98 in 3.0 mi SSE 3.5 mph - N/A   Overcast
5:15 PM 69.8 °F 68.0 °F 94% 29.98 in 2.0 mi SSE 4.6 mph - N/A   Overcast
5:35 PM 69.8 °F 69.8 °F 100% 29.98 in 10.0 mi SSE 5.8 mph - N/A   Overcast
5:55 PM 69.8 °F 68.0 °F 94% 29.97 in 9.0 mi SSE 6.9 mph - N/A   Overcast
6:15 PM 71.6 °F 68.0 °F 88% 29.96 in 10.0 mi SE 6.9 mph - N/A   Overcast
6:35 PM 71.6 °F 68.0 °F 88% 29.97 in 10.0 mi SSE 6.9 mph - N/A   Overcast
6:55 PM 71.6 °F 68.0 °F 88% 29.97 in 10.0 mi South 4.6 mph - N/A   Overcast
7:15 PM 71.6 °F 68.0 °F 88% 29.97 in 7.0 mi South 6.9 mph 12.7 mph N/A   Overcast
7:35 PM 71.6 °F 68.0 °F 88% 29.97 in 10.0 mi SSE 4.6 mph - N/A   Mostly Cloudy
7:55 PM 69.8 °F 68.0 °F 94% 29.97 in 10.0 mi South 4.6 mph - N/A   Overcast
8:15 PM 69.8 °F 68.0 °F 94% 29.98 in 10.0 mi South 3.5 mph - N/A   Overcast
8:35 PM 69.8 °F 68.0 °F 94% 29.98 in 10.0 mi Calm Calm - N/A   Overcast
8:55 PM 69.8 °F 68.0 °F 94% 29.99 in 10.0 mi South 3.5 mph - N/A   Overcast
9:15 PM 69.8 °F 68.0 °F 94% 29.99 in 10.0 mi South 4.6 mph - N/A   Overcast
9:35 PM 69.8 °F 68.0 °F 94% 29.99 in 6.0 mi Variable 5.8 mph - N/A   Overcast
9:55 PM 69.8 °F 68.0 °F 94% 29.99 in 10.0 mi SSE 6.9 mph - N/A   Overcast
10:15 PM 69.8 °F 68.0 °F 94% 29.98 in 10.0 mi SSE 6.9 mph - N/A   Overcast
10:35 PM 69.8 °F 68.0 °F 94% 29.97 in 10.0 mi SSE 8.1 mph 13.8 mph N/A   Mostly Cloudy
10:55 PM 69.8 °F 68.0 °F 94% 29.97 in 10.0 mi South 9.2 mph 15.0 mph N/A   Partly Cloudy
11:15 PM 69.8 °F 68.0 °F 94% 29.98 in 10.0 mi South 6.9 mph - N/A   Scattered Clouds
11:35 PM 69.8 °F 68.0 °F 94% 29.98 in 10.0 mi Variable 4.6 mph - N/A   Mostly Cloudy
11:55 PM 69.8 °F 68.0 °F 94% 29.98 in 10.0 mi South 6.9 mph - N/A   Overcast